User: anonymous   Login
Location: Newark
(48.0000°N, 67.0000°E)
Time: 00:23:17
(UTC+00:00)
Language:

DUCHIFAT 1 - Orbit

View from above orbital plane
View from above orbital plane
View from above satellite
View from above satellite

Ground track
Ground track

The orbit data is extracted from the following two-line orbital elements,

1 40021U 14033M   21125.39232895  .00000556  00000-0  61616-4 0  9990
2 40021  97.9699  65.1353 0011704 311.5731  48.4483 14.91299088373864
Epoch (UTC): 05 May 2021 09:24:57
Eccentricity: 0.0011704
inclination: 97.9699°
perigee height: 586 km
apogee height: 602 km
right ascension of ascending node: 65.1353°
argument of perigee: 311.5731°
revolutions per day: 14.91299088
mean anomaly at epoch: 48.4483°
orbit number at epoch: 37386

The dashed part of the orbit path shows where the satellite is in the earth's shadow,  

DLR